Weather History for Cedar City, UT

Change the Weather History Date:

Friday, January 18, 2013

  Actual Average Record
Temperature  
Mean Temperature 11 °F 29 °F  
Max Temperature 27 °F 42 °F 68 °F (2014)
Min Temperature -5 °F 17 °F -11 °F (1949)
Degree Days  
Heating Degree Days 54 36  
Month to date heating degree days 939 655  
Since 1 July heating degree days 3157 3217  
Moisture  
Dew Point 2 °F    
Average Humidity 71    
Maximum Humidity 87    
Minimum Humidity 55    
Precipitation  
Precipitation T in 0.03 in 0.45 in (1952)
Month to date precipitation 0.18 0.51  
Year to date precipitation 0.18 0.51  
Sea Level Pressure  
Sea Level Pressure 30.57 in    
Wind  
Wind Speed 3 mph (NE)    
Max Wind Speed 8 mph    
Max Gust Speed 9 mph    
Visibility 9 miles    
Events Snow    
T = Trace of Precipitation, MM = Missing Value Source: NWS Daily Summary

Daily Weather History Graph

Daily Weather History Graph

Search for Another Location

Airport:

Trip Planner

Search our weather history database for the weather conditions in past years. The results will help you decide how hot, cold, wet, or windy it might be!

Date:

Astronomy

Jan. 18, 2013 Rise Set
Actual Time 7:45 AM MST 5:41 PM MST
Civil Twilight 7:16 AM MST 6:09 PM MST
Nautical Twilight 6:44 AM MST 6:41 PM MST
Astronomical Twilight 6:13 AM MST 7:12 PM MST
Moon 11:35 AM MST (1/18) 12:26 AM MST (1/18)
Length of Visible Light 10h 52m
Length of Day
9h 56m
Waxing Crescent, 48% of the Moon is Illuminated
Jan 18
Waxing Crescent
Jan 18
First Quarter
Jan 26
Full
Feb 3
Last Quarter
Feb 10
New

Hourly Weather History & Observations

Time (MST) Temp. Windchill Dew Point Humidity Pressure Visibility Wind Dir Wind Speed Gust Speed Precip Events Conditions
12:53 AM 3.9 °F - -0.0 °F 84% 30.58 in 9.0 mi Calm Calm - N/A   Clear
1:53 AM 5.0 °F -2.1 °F -0.0 °F 80% 30.57 in 10.0 mi NE 3.5 mph - N/A   Clear
2:53 AM 1.9 °F - -0.9 °F 88% 30.57 in 6.0 mi Calm Calm - N/A   Clear
3:53 AM 1.0 °F - -2.9 °F 83% 30.56 in 8.0 mi Calm Calm - N/A   Clear
4:53 AM -0.0 °F -7.9 °F -4.0 °F 83% 30.57 in 7.0 mi North 3.5 mph - N/A   Clear
5:53 AM -0.0 °F - -4.0 °F 83% 30.58 in 5.0 mi Calm Calm - N/A   Clear
6:53 AM -0.9 °F -8.9 °F -6.0 °F 79% 30.62 in 10.0 mi ENE 3.5 mph - N/A   Clear
7:53 AM -2.9 °F - -8.0 °F 79% 30.64 in 6.0 mi Calm Calm - N/A   Haze
8:37 AM -0.4 °F -10.4 °F -5.8 °F 78% 30.41 in 10.0 mi ENE 4.6 mph - N/A   Scattered Clouds
8:46 AM -0.4 °F -10.4 °F -5.8 °F 78% 30.41 in 10.0 mi NE 4.6 mph - N/A   Mostly Cloudy
8:53 AM -0.0 °F -7.9 °F -4.0 °F 83% 30.66 in 10.0 mi ENE 3.5 mph - N/A   Mostly Cloudy
9:11 AM 1.4 °F -8.3 °F -5.8 °F 72% 30.41 in 8.0 mi NE 4.6 mph - 0.00 in Snow Light Snow
9:53 AM 5.0 °F -4.1 °F -0.0 °F 80% 30.66 in 10.0 mi East 4.6 mph - 0.00 in   Clear
10:53 AM 12.0 °F 2.7 °F 6.1 °F 77% 30.64 in 10.0 mi NNE 5.8 mph - N/A   Clear
11:53 AM 19.0 °F 11.1 °F 10.0 °F 68% 30.60 in 10.0 mi NNE 5.8 mph - N/A   Clear
12:53 PM 21.0 °F 14.6 °F 10.9 °F 65% 30.56 in 10.0 mi NE 4.6 mph - N/A   Clear
1:53 PM 26.1 °F 20.5 °F 14.0 °F 60% 30.50 in 10.0 mi North 4.6 mph - N/A   Clear
2:53 PM 26.1 °F 20.5 °F 12.9 °F 58% 30.50 in 10.0 mi NE 4.6 mph - N/A   Clear
3:53 PM 26.1 °F 18.4 °F 12.9 °F 58% 30.50 in 10.0 mi NNE 6.9 mph - N/A   Clear
4:53 PM 25.0 °F - 12.0 °F 58% 30.52 in 10.0 mi North - - N/A   Clear
5:53 PM 17.1 °F - 9.0 °F 71% 30.58 in 10.0 mi Calm Calm - N/A   Clear
6:53 PM 12.9 °F 6.9 °F 7.0 °F 77% 30.61 in 10.0 mi ENE 3.5 mph - N/A   Clear
7:53 PM 8.1 °F - 3.9 °F 83% 30.64 in 10.0 mi Calm Calm - N/A   Clear
8:53 PM 10.0 °F 3.6 °F 3.9 °F 76% 30.62 in 10.0 mi NNE 3.5 mph - N/A   Clear
9:53 PM 7.0 °F -1.7 °F 3.0 °F 84% 30.62 in 8.0 mi ENE 4.6 mph - N/A   Clear
11:53 PM 3.0 °F - -2.0 °F 80% 30.58 in 8.0 mi Calm Calm - N/A   Clear